| time (UTC) | temp F | wind direction | speed MPH | gust MPH | rain 1hr in | rain 24hr in | rain mn in | humidity % | barometer mb |
| 20260509074608 | 54 | 339 | 4.0 | 10.0 | 0.00 | 0.01 | 0.00 | 83 | 1002.7 |
| 20260509073056 | 54 | 339 | 4.0 | 12.0 | 0.00 | 0.01 | 0.00 | 82 | 1002.7 |
| 20260509071608 | 54 | 319 | 4.0 | 10.0 | 0.00 | 0.01 | 0.00 | 82 | 1002.9 |
| 20260509070048 | 54 | 350 | 5.0 | 11.0 | 0.00 | 0.01 | 0.00 | 81 | 1003.3 |
| 20260509064547 | 55 | 350 | 4.0 | 11.0 | 0.00 | 0.01 | 0.00 | 81 | 1003.4 |
| 20260509063044 | 55 | 324 | 5.0 | 10.0 | 0.00 | 0.01 | 0.00 | 82 | 1003.7 |
| 20260509061552 | 55 | 335 | 4.0 | 10.0 | 0.00 | 0.01 | 0.00 | 81 | 1004.1 |
| 20260509060012 | 55 | 348 | 2.0 | 8.0 | 0.00 | 0.01 | 0.00 | 81 | 1004.1 |
| 20260509054511 | 56 | 318 | 3.0 | 8.0 | 0.00 | 0.01 | 0.00 | 79 | 1004.2 |
| 20260509053042 | 56 | 337 | 3.0 | 8.0 | 0.00 | 0.01 | 0.00 | 78 | 1004.3 |
| 20260509051542 | 56 | 330 | 5.0 | 9.0 | 0.00 | 0.01 | 0.00 | 77 | 1004.2 |
| 20260509050047 | 57 | 341 | 3.0 | 7.0 | 0.00 | 0.01 | 0.00 | 75 | 1004.2 |
| 20260509044537 | 57 | 337 | 4.0 | 10.0 | 0.00 | 0.01 | 0.00 | 74 | 1004.1 |
| 20260509043038 | 57 | 331 | 4.0 | 10.0 | 0.00 | 0.01 | 0.00 | 72 | 1004.2 |
| 20260509041535 | 57 | 321 | 4.0 | 10.0 | 0.00 | 0.01 | 0.00 | 71 | 1004.1 |
| 20260509040031 | 57 | 300 | 5.0 | 9.0 | 0.00 | 0.01 | 0.00 | 70 | 1004.3 |
| 20260509034530 | 57 | 320 | 3.0 | 8.0 | 0.00 | 0.01 | 0.00 | 68 | 1004.3 |
| 20260509033029 | 57 | 309 | 3.0 | 9.0 | 0.00 | 0.01 | 0.00 | 68 | 1004.4 |
| 20260509031532 | 57 | 295 | 2.0 | 5.0 | 0.00 | 0.01 | 0.00 | 68 | 1004.5 |
| 20260509030100 | 57 | 290 | 2.0 | 7.0 | 0.00 | 0.01 | 0.00 | 68 | 1004.5 |
| 20260509024556 | 57 | 262 | 1.0 | 8.0 | 0.00 | 0.01 | 0.00 | 68 | 1004.4 |
| 20260509023057 | 57 | 262 | 2.0 | 9.0 | 0.00 | 0.01 | 0.00 | 68 | 1004.6 |
| 20260509021552 | 58 | 254 | 4.0 | 9.0 | 0.00 | 0.01 | 0.00 | 66 | 1004.7 |
| 20260509020051 | 58 | 250 | 4.0 | 9.0 | 0.00 | 0.01 | 0.00 | 66 | 1004.7 |
| 20260509014550 | 58 | 252 | 5.0 | 10.0 | 0.00 | 0.01 | 0.00 | 65 | 1004.7 |
| 20260509013049 | 59 | 249 | 3.0 | 10.0 | 0.00 | 0.01 | 0.00 | 64 | 1004.7 |
| 20260509011548 | 59 | 253 | 3.0 | 10.0 | 0.00 | 0.01 | 0.00 | 63 | 1004.7 |
| 20260509010048 | 60 | 276 | 4.0 | 10.0 | 0.00 | 0.01 | 0.00 | 62 | 1004.8 |
| 20260509010046 | 60 | 118 | 4.0 | 10.0 | 0.00 | 0.01 | 0.00 | 62 | 1004.8 |
| 20260509004550 | 61 | 255 | 4.0 | 10.0 | 0.00 | 0.01 | 0.00 | 60 | 1004.7 |
| 20260509003045 | 61 | 254 | 7.0 | 11.0 | 0.00 | 0.01 | 0.00 | 60 | 1004.7 |
| 20260509001542 | 62 | 242 | 7.0 | 13.0 | 0.00 | 0.01 | 0.00 | 59 | 1004.7 |
| 20260509000053 | 63 | 225 | 8.0 | 13.0 | 0.00 | 0.01 | 0.00 | 58 | 1004.8 |
| 20260508234540 | 63 | 256 | 5.0 | 10.0 | 0.00 | 0.01 | 0.00 | 57 | 1005.0 |
| 20260508233040 | 63 | 194 | 2.0 | 12.0 | 0.00 | 0.01 | 0.00 | 55 | 1005.1 |
| 20260508231534 | 63 | 257 | 2.0 | 9.0 | 0.00 | 0.01 | 0.00 | 53 | 1005.2 |
| 20260508230034 | 63 | 243 | 5.0 | 12.0 | 0.00 | 0.01 | 0.00 | 52 | 1005.2 |
| 20260508224532 | 64 | 199 | 5.0 | 13.0 | 0.00 | 0.01 | 0.00 | 48 | 1005.2 |
| 20260508223036 | 64 | 253 | 6.0 | 13.0 | 0.00 | 0.01 | 0.00 | 45 | 1005.4 |
| 20260508221534 | 64 | 256 | 6.0 | 13.0 | 0.00 | 0.01 | 0.00 | 44 | 1005.4 |
| 20260508220035 | 64 | 239 | 5.0 | 15.0 | 0.00 | 0.01 | 0.00 | 44 | 1005.5 |
| 20260508214526 | 64 | 246 | 4.0 | 12.0 | 0.00 | 0.01 | 0.00 | 43 | 1005.6 |
| 20260508213031 | 65 | 265 | 7.0 | 15.0 | 0.00 | 0.01 | 0.00 | 40 | 1005.5 |
| 20260508211521 | 65 | 254 | 5.0 | 11.0 | 0.00 | 0.01 | 0.00 | 38 | 1005.7 |
| 20260508210019 | 65 | 242 | 8.0 | 13.0 | 0.00 | 0.05 | 0.00 | 37 | 1005.9 |
| 20260508204518 | 65 | 214 | 2.0 | 8.0 | 0.00 | 0.05 | 0.00 | 38 | 1006.0 |
| 20260508203016 | 65 | 287 | 2.0 | 7.0 | 0.00 | 0.05 | 0.00 | 34 | 1006.3 |
| 20260508201556 | 66 | 179 | 3.0 | 8.0 | 0.00 | 0.05 | 0.00 | 31 | 1006.5 |
| 20260508200050 | 65 | 137 | 0.0 | 10.0 | 0.00 | 0.05 | 0.00 | 34 | 1006.6 |
| 20260508194512 | 66 | 44 | 2.0 | 9.0 | 0.00 | 0.05 | 0.00 | 36 | 1006.9 |
| 20260508193007 | 65 | 84 | 4.0 | 8.0 | 0.00 | 0.05 | 0.00 | 34 | 1007.1 |
| 20260508191503 | 65 | 314 | 3.0 | 9.0 | 0.00 | 0.05 | 0.00 | 34 | 1007.2 |
| 20260508190004 | 64 | 352 | 2.0 | 10.0 | 0.00 | 0.05 | 0.00 | 35 | 1007.6 |
| 20260508184600 | 64 | 85 | 1.0 | 5.0 | 0.00 | 0.05 | 0.00 | 35 | 1007.8 |
| 20260508183104 | 65 | 289 | 2.0 | 10.0 | 0.00 | 0.05 | 0.00 | 37 | 1008.0 |
| 20260508181612 | 64 | 339 | 2.0 | 6.0 | 0.00 | 0.05 | 0.00 | 34 | 1008.2 |
| 20260508180108 | 62 | 181 | 2.0 | 8.0 | 0.00 | 0.05 | 0.00 | 36 | 1008.3 |
| 20260508174549 | 62 | 127 | 1.0 | 5.0 | 0.00 | 0.05 | 0.00 | 34 | 1008.7 |
| 20260508173050 | 62 | 258 | 5.0 | 11.0 | 0.00 | 0.05 | 0.00 | 36 | 1009.0 |
| 20260508171544 | 61 | 355 | 2.0 | 11.0 | 0.00 | 0.05 | 0.00 | 32 | 1009.1 |
| 20260508170041 | 61 | 240 | 6.0 | 12.0 | 0.00 | 0.05 | 0.00 | 37 | 1009.3 |
| 20260508164542 | 60 | 293 | 7.0 | 13.0 | 0.00 | 0.05 | 0.00 | 37 | 1009.7 |
| 20260508163038 | 61 | 277 | 4.0 | 7.0 | 0.00 | 0.05 | 0.00 | 39 | 1010.0 |
| 20260508161509 | 62 | 207 | 1.0 | 9.0 | 0.00 | 0.05 | 0.00 | 40 | 1010.0 |
| 20260508160006 | 60 | 212 | 0.0 | 8.0 | 0.00 | 0.05 | 0.00 | 41 | 1010.2 |
| 20260508154600 | 60 | 206 | 1.0 | 4.0 | 0.00 | 0.05 | 0.00 | 37 | 1010.3 |
| 20260508153100 | 59 | 262 | 3.0 | 8.0 | 0.00 | 0.05 | 0.00 | 37 | 1010.5 |
| 20260508151554 | 59 | 268 | 2.0 | 5.0 | 0.00 | 0.05 | 0.00 | 44 | 1010.5 |
| 20260508150049 | 57 | 297 | 2.0 | 7.0 | 0.00 | 0.05 | 0.00 | 46 | 1010.4 |
| 20260508144544 | 56 | 299 | 3.0 | 5.0 | 0.00 | 0.05 | 0.00 | 59 | 1010.7 |
| 20260508143039 | 54 | 324 | 3.0 | 6.0 | 0.00 | 0.05 | 0.00 | 67 | 1010.7 |
| 20260508141546 | 53 | 323 | 2.0 | 5.0 | 0.00 | 0.05 | 0.00 | 78 | 1010.6 |
| 20260508140030 | 51 | 262 | 0.0 | 3.0 | 0.00 | 0.05 | 0.00 | 87 | 1010.7 |
| 20260508134523 | 49 | 232 | 3.0 | 5.0 | 0.00 | 0.05 | 0.00 | 89 | 1010.7 |
| 20260508133021 | 48 | 271 | 2.0 | 5.0 | 0.00 | 0.05 | 0.00 | 88 | 1010.8 |
| 20260508131515 | 47 | 198 | 0.0 | 3.0 | 0.00 | 0.05 | 0.00 | 87 | 1011.0 |
| 20260508130012 | 45 | 198 | 0.0 | 4.0 | 0.00 | 0.05 | 0.00 | 87 | 1010.9 |
| 20260508124607 | 44 | 214 | 1.0 | 4.0 | 0.00 | 0.05 | 0.00 | 87 | 1011.0 |
| 20260508123034 | 42 | 219 | 1.0 | 4.0 | 0.00 | 0.05 | 0.00 | 87 | 1011.0 |
| 20260508121530 | 39 | 258 | 0.0 | 0.0 | 0.00 | 0.05 | 0.00 | 88 | 1011.0 |
| 20260508120035 | 37 | 258 | 0.0 | 0.0 | 0.00 | 0.05 | 0.05 | 88 | 1011.1 |
| 20260508114523 | 36 | 258 | 0.0 | 0.0 | 0.00 | 0.05 | 0.05 | 89 | 1010.9 |
| 20260508113023 | 36 | 260 | 0.0 | 0.0 | 0.00 | 0.05 | 0.05 | 89 | 1010.8 |
| 20260508111523 | 36 | 263 | 0.0 | 2.0 | 0.00 | 0.05 | 0.05 | 89 | 1010.8 |
| 20260508110020 | 36 | 262 | 0.0 | 0.0 | 0.01 | 0.05 | 0.05 | 89 | 1010.8 |
| 20260508104519 | 35 | 260 | 0.0 | 0.0 | 0.01 | 0.05 | 0.05 | 89 | 1010.8 |
| 20260508103028 | 35 | 260 | 0.0 | 1.0 | 0.01 | 0.05 | 0.05 | 89 | 1010.6 |
| 20260508101528 | 36 | 261 | 0.0 | 0.0 | 0.01 | 0.05 | 0.05 | 90 | 1010.8 |
| 20260508100047 | 36 | 260 | 1.0 | 4.0 | 0.00 | 0.04 | 0.04 | 90 | 1010.8 |
| 20260508094602 | 36 | 210 | 0.0 | 0.0 | 0.00 | 0.04 | 0.04 | 90 | 1010.7 |
| 20260508093041 | 36 | 209 | 0.0 | 0.0 | 0.00 | 0.04 | 0.04 | 89 | 1010.8 |
| 20260508091539 | 37 | 208 | 0.0 | 0.0 | 0.00 | 0.04 | 0.04 | 89 | 1011.0 |
| 20260508090039 | 37 | 209 | 0.0 | 0.0 | 0.00 | 0.04 | 0.04 | 89 | 1011.0 |
| 20260508084537 | 37 | 208 | 0.0 | 0.0 | 0.00 | 0.04 | 0.04 | 89 | 1011.0 |
| 20260508083036 | 37 | 208 | 0.0 | 0.0 | 0.00 | 0.04 | 0.04 | 89 | 1011.1 |
| 20260508081533 | 38 | 207 | 0.0 | 0.0 | 0.00 | 0.04 | 0.04 | 89 | 1011.2 |
| 20260508080036 | 38 | 208 | 0.0 | 0.0 | 0.00 | 0.04 | 0.04 | 89 | 1011.3 |